STARLINK-37595, 69847

Orbit data source: Space-Track

STARLINK-37595, 69847 is a payload satellite owned by SpaceX/Seattle (US) in LEO that was launched on Sun, 05 Jul 2026 UTC via an FALCON 9 launch vehicle from the Air Force Eastern Test Range (AFETR). Payload-class satellites include a variety of spacecraft equipped with specific instruments for various scientific and technological missions. These include communications satellites like Starlink; space stations such as the ISS; scientific satellites like the Hubble; Earth observation satellites from companies like Planet Labs, Umbra, and HawkEye 360; GPS; miniature CubeSats for education and research; and military/defense satellites.

Loading next visibility...
Identifier
69847, 2026-154AE
Orbit
LEO
Country
Flag of USUS
Related business
Manufacturer
SpaceX/Seattle
Mission
Operational spacecraft
Bus & Motor
STARLINK V2MO, Unknown motor
Mass
575 kg wet, ~530 kg dry
Launch date (UTC)
2026-07-05 (2 months ago)
Launch vehicle
FALCON 9
Launch site
Air Force Eastern Test Range (AFETR)
Object type
Payload
Rocket body
Debris
Shape & HBR
BOX + PAN, 17.7 m
Radar Cross Section
Large (>1 m²)

Expand to show TLE details & history
Last TLE update: 8 hours ago

TLE from 8 hours ago
0 STARLINK-37595
1 69847U 26154AE  26254.63119148  .00020181  00000-0  60676-3 0  9994
2 69847  53.1603  13.3746 0000794  82.9811 277.1282 15.34402673 11878
Epoch: 2026-09-11T15:08Z
TLE epoch observation values (Epoch: 2026-09-11T15:08:54.943Z)
Latitude
-0.00003°
Longitude
155.49387°
Altitude
463.529 km
Speed
7.636 km/s
True Right ascension
00h 53m 29s
True Declination
0° 00' 00"
Sunlit
Object was in full shadow at epoch
Visualization orbit readout
Latitude
Unknown
Longitude
Unknown
Altitude
Unknown
Speed
Unknown
Apparent Right ascension
Unknown
Apparent Declination
Unknown
Sunlit
N/A
Visualization observer readout
Local Sidereal Time
15:12:47
Azimuth
Unknown
Elevation
Unknown
Doppler factor
Unknown
Orbital elements
Apogee altitude
463.495 km
Perigee altitude
462.409 km
Semi-major axis
6,841.089 km
Eccentricity
0.00008
Inclination
53.1603°
RAAN
13.3746°
Arg. of periapsis
82.9811°
True anomaly
277.11917°
Mean anomaly
277.1282°
Eccentric anomaly
277.12369°
Mean motion
3.83579 °/min
Orbital period
93.85 mins
BSTAR
0.00060676
Loading maneuver chart data...
Computing Atmospheric mass density...
Loading historical data...
Loading historical data...
Loading historical data...
Loading historical data...
Loading historical data...
Loading historical data...
Loading historical data...

Documentation

Showing up to 5 results
|